Regional Weather Roundup
Issued by NWS

Home | Current Version | Previous Version | Graphics & Text | Print | Product List | Glossary On
Versions: 1 2 3 4 5 6 7 8 9 10 11 12 13 14 15 16 17 18 19 20 21 22 23 24 25 26 27 28 29 30 31 32 33 34 35 36 37 38 39 40 41 42 43 44 45 46 47 48 49 50
000
ASUS45 KPSR 050710
RWRAZ

ARIZONA HOURLY REGIONAL WEATHER ROUNDUP
NATIONAL WEATHER SERVICE PHOENIX AZ
1200 AM MST FRI FEB 05 2016

NOTE: FAIR INDICATES FEW OR NO CLOUDS BELOW 12,000 FEET WITH NO
SIGNIFICANT WEATHER AND/OR OBSTRUCTIONS TO VISIBILITY.

AZZ001>003-036-050800-
NORTHWEST ARIZONA

CITY           SKY/WX    TMP DP  RH WIND       PRES   REMARKS
BULLHEAD CITY  CLEAR     54  21  28 N22       30.39R
KINGMAN        CLEAR     32  20  61 E9        30.39R WCI  24
$$

AZZ004>008-015-016-018-050800-
NORTH CENTRAL ARIZONA

CITY           SKY/WX    TMP DP  RH WIND       PRES   REMARKS
GRAND CANYON   CLEAR     17  11  77 NE3       30.38R
WILLIAMS       CLEAR     27  14  59 NE6       30.39R WCI  20
PRESCOTT       CLEAR     30  19  63 N6        30.33S WCI  24
FLAGSTAFF      CLEAR     25  14  63 E16       30.31R WCI  12
PAYSON         MOCLDY    34  10  37 CALM      30.31R
PAGE           CLEAR     28  20  71 SE3       30.43S
$$

AZZ009>014-017-050800-
NORTHEAST ARIZONA

CITY           SKY/WX    TMP DP  RH WIND       PRES   REMARKS
WINSLOW        MOCLDY    22  15  75 SW6       30.39R WCI  14
SAINT JOHNS    CLEAR     21  11  65 CALM      30.34R
WINDOW ROCK    CLEAR     14   0  53 W3        30.33R
SHOW LOW       PTCLDY    19   9  63 N3        30.35R
$$

AZZ023-050800-
GREATER PHOENIX AREA

CITY           SKY/WX    TMP DP  RH WIND       PRES   REMARKS
PHOENIX        PTCLDY    47  23  38 CALM      30.25S
BUCKEYE        PTCLDY    41  25  52 CALM      30.28S
LUKE AFB       PTCLDY    46  24  42 N8        30.25R
DEER VALLEY    PTCLDY    47  20  34 CALM      30.26R
SCOTTSDALE     PTCLDY    46  24  42 CALM      30.27S
MESA-GATEWAY   CLEAR    N/A N/A N/A E6        30.26
$$

AZZ027-028-050800-
SOUTHWEST MARICOPA COUNTY AND PINAL COUNTY

CITY           SKY/WX    TMP DP  RH WIND       PRES   REMARKS
CASA GRANDE    PTCLDY    41  16  36 NE3       30.25S
GILA BEND      FAIR      40  19  44 S6        30.25R
$$

AZZ503-504-507>509-050800-
SOUTHEAST ARIZONA

CITY           SKY/WX    TMP DP  RH WIND       PRES   REMARKS
TUCSON         CLEAR     39  16  39 E3        30.26R
DAVIS-MONTHAN  CLEAR     36  17  47 SE9       30.23S WCI  29
NOGALES        CLEAR     38   9  30 N10       30.21R WCI  31
SIERRA VISTA   CLEAR     33  11  39 NW1       30.26S
DOUGLAS        CLEAR     25  10  53 CALM      30.25S
SAFFORD        CLEAR     29  15  56 CALM      30.27R
$$

AZZ020-021-025-026-031-050800-
SOUTHWEST ARIZONA

CITY           SKY/WX    TMP DP  RH WIND       PRES   REMARKS
YUMA           PTCLDY    49  19  30 W3        30.29R
$$

CAZ031-033-041-043-047-048-061-050800-
SOUTHERN CALIFORNIA

CITY           SKY/WX    TMP DP  RH WIND       PRES   REMARKS
DOWNTOWN L.A.  CLEAR     54  32  43 CALM      30.26R
L.A. AIRPORT   PTCLDY    57  31  37 E5        30.26S
SAN DIEGO      PTCLDY    56  39  53 CALM      30.28R
BURBANK        CLEAR     50  30  46 CALM      30.27R
ONTARIO        CLEAR     56  26  31 VRB5      30.27R
RIVERSIDE      CLEAR     61  16  17 NE9       30.31R
PALM SPRINGS   CLEAR     59  21  23 W6        30.37R
EL CENTRO NAS  PTCLDY    43  14  31 W5        30.35R
IMPERIAL       CLEAR     45  18  34 W7        30.32R
BLYTHE         CLEAR     52  19  27 N18       30.32R
NEEDLES        CLEAR     51  21  30 N10       30.37R
$$

NVZ020-UTZ003-050800-
SOUTHERN NEVADA-UTAH

CITY           SKY/WX    TMP DP  RH WIND       PRES   REMARKS
LAS VEGAS      PTCLDY    45  24  43 NE3       30.40S
SALT LAKE CITY FLURRIES  28  22  78 SE6       30.47R WCI  22
$$

NMZ009-TXZ055-050800-
NEW MEXICO-WEST TEXAS

CITY           SKY/WX    TMP DP  RH WIND       PRES   REMARKS
ALBUQUERQUE    CLEAR     28   7  41 N6        30.31R WCI  22
EL PASO        MOCLDY    32   4  30 NE8       30.26S WCI  25
$$


........................KEY........................
SKY/WX - SKY CONDITION/WEATHER
TMP    - TEMPERATURE IN FAHRENHEIT
DP     - DEW POINT IN FAHRENHEIT
RH     - RELATIVE HUMIDITY IN PERCENT
WIND   - DIRECTION AND SPEED IN MILES PER HOUR (MPH)
VRB    - VARIABLE WIND DIRECTION
PRES   - MEAN SEA LEVEL PRESSURE IN INCHES OF MERCURY
         F - FALLING PRESSURE   R - RISING PRESSURE
         S - STEADY PRESSURE
VSB    - VISIBILITY IN MILES
HX     - HEAT INDEX IN FAHRENHEIT
WCI    - WIND CHILL INDEX IN FAHRENHEIT
TC     - TEMPERATURE IN CELSIUS WHICH IS ALSO KNOWN AS
         TEMPERATURE IN CENTIGRADE
AFB    - AIR FORCE BASE
         LUKE AFB IS LUKE AIR FORCE BASE
         DAVIS-MONTHAN IS DAVIS-MONTHAN AIR FORCE BASE
NAS    - NAVAL AIR STATION
         EL CENTRO NAS IS EL CENTRO NAVAL AIR STATION
N/A    - NOT AVAILABLE




USA.gov is the U.S. government's official web portal to all federal, state and local government web resources and services.